Miscellaneous Local Product
Issued by NWS Hastings, NE

Home | Current Version | Previous Version | Text Only | Print | Product List | Glossary Off
Versions: 1 2 3 4 5 6 7 8 9 10 11 12 13 14 15 16 17 18 19 20 21 22 23 24 25 26 27 28 29 30 31 32 33 34 35 36 37 38 39 40 41 42 43 44 45 46 47 48 49 50

000
AXUS43 KGID 200402
MISGRI

GID CWA HOURLY WEATHER ROUNDUP
NATIONAL WEATHER SERVICE HASTINGS NE
1000 PM CST FRI DEC 19 2014

NOTE: "FAIR" INDICATES FEW OR NO CLOUDS BELOW 12,000 FEET WITH NO
SIGNIFICANT WEATHER AND/OR OBSTRUCTIONS TO VISIBILITY.

...SOUTH CENTRAL NEBRASKA...

CITY           SKY/WX    TMP DP  RH WIND       PRES   REMARKS
GRAND ISLAND   FOG       33  32  96 S7        30.05F VSB 1/2 WCI  27
HASTINGS       FOG       33  32  96 S7        30.04S VSB 1/4 WCI  27
KEARNEY        CLOUDY    27  25  93 CALM      30.04R VSB<1/4
ORD            FOG       27  26  96 S6        30.02S VSB 1/2 WCI  20
YORK           FOG       32  32 100 S10       30.08S VSB 1/2 WCI  24
AURORA         FOG       33  33 100 S9        30.06S VSB 1/2 WCI  25
LEXINGTON      CLEAR     23  22  95 CALM      30.02S FOG
HOLDREGE       CLEAR     28  26  94 S7        30.02S FOG     WCI  21
HEBRON         FOG       32  31  96 S7        30.10F VSB 3/4 WCI  26

...NEBRASKA PANHANDLE...

CITY           SKY/WX    TMP DP  RH WIND       PRES   REMARKS
CHADRON        PTCLDY    20  14  77 SW6       29.97S WCI  12
ALLIANCE       MOCLDY    16  14  92 W3        29.98S
SCOTTSBLUFF    PTCLDY    21  16  81 N7        29.98F WCI  12
SIDNEY         PTCLDY    19  15  84 W8        30.01F WCI   9

...WESTERN AND NORTH CENTRAL NEBRASKA...

CITY           SKY/WX    TMP DP  RH WIND       PRES   REMARKS
VALENTINE      CLEAR     16  14  92 SW6       29.99S WCI   7
AINSWORTH      CLEAR     21  19  95 W9        29.99R WCI  10
ONEILL         FOG       27  27 100 S6        30.01F VSB 1/2 WCI  21
BROKEN BOW     PTCLDY    23  20  88 N3        29.99F FOG
IMPERIAL       CLEAR     29  22  75 W8        30.03S WCI  21
NORTH PLATTE   CLEAR     24  21  88 NW8       30.02S FOG     WCI  15
MCCOOK         CLEAR     27  22  81 SW9       30.04R WCI  18

...EASTERN NEBRASKA...

CITY           SKY/WX    TMP DP  RH WIND       PRES   REMARKS
NORFOLK        CLOUDY    33  30  88 SE7       30.05F WCI  27
SO SIOUX CITY  CLOUDY    33  29  85 SE8       30.11S WCI  26
TEKAMAH        CLOUDY    32  30  92 SE10      30.14R WCI  24
COLUMBUS       CLOUDY    34  28  80 S8        30.09S WCI  27
ALBION         CLOUDY    32  30  90 SW5       30.05S FOG     WCI  28
OMAHA EPPLEY   CLOUDY    32  29  88 S13       30.15F FOG     WCI  22
OFFUTT AFB     CLOUDY    31  29  92 SE9       30.14F WCI  23
MILLARD        CLOUDY    32  30  92 SE7       30.14S FOG     WCI  26
LINCOLN        CLOUDY    33  30  88 S10       30.12F WCI  25
NEBRASKA CITY  CLOUDY    31  30  99 S6        30.16S WCI  25
BEATRICE       CLOUDY    32  31  94 SE6       30.14R WCI  26
FALLS CITY     CLOUDY    30  27  88 SE6       30.19R WCI  24

...NORTHERN KANSAS...

CITY           SKY/WX    TMP DP  RH WIND       PRES   REMARKS
GOODLAND       CLEAR     34  29  82 SW13      30.06R WCI  25
HILL CITY      CLEAR     35  27  72 W7        30.07S WCI  29
NORTON         CLEAR     28  23  80 SW7       30.03S WCI  21
PHILLIPSBURG   CLEAR     36  28  75 CALM      30.05F
SMITH CENTER   CLEAR     27  27 100 E7        30.07S FOG     WCI  19
BELOIT         CLEAR     30  30 100 SE6       30.09S WCI  24
HAYS           CLEAR     34  27  75 SW15      30.08F WCI  24
RUSSELL        CLEAR     33  32  96 SW12      30.08S WCI  24
CONCORDIA      CLEAR     30  30 100 SE5       30.10F FOG     WCI  25
SALINA         CLEAR     31  28  89 S8        30.14S FOG     WCI  23
TOPEKA         CLOUDY    34  28  79 S5        30.21S WCI  30



USA.gov is the U.S. government's official web portal to all federal, state and local government web resources and services.